Weather Roundup
Issued by NWS Springfield, MO

Home | Current Version | Previous Version | Text Only | Print | Product List | Glossary On
Versions: 1 2 3 4 5 6 7 8 9 10 11 12 13 14 15 16 17 18 19 20 21 22 23 24 25 26 27 28 29 30 31 32 33 34 35 36 37 38 39 40 41 42 43 44 45 46 47 48 49 50
000
NZUS99 KSGF 250907
HRRSGF

HOURLY WEATHER
NATIONAL WEATHER SERVICE SPRINGFIELD MO
400 AM CDT WED MAY 25 2016

......SGF CWA......

CITY           SKY/WX    TMP DP  RH WIND       PRES   REMARKS
SPRINGFIELD    CLOUDY    65  62  90 S8        29.97R
JOPLIN         LGT RAIN  68  66  93 NE7       29.94F
WEST PLAINS    PTCLDY    59  56  89 CALM      30.02R
ROLLA          CLOUDY    60  59  96 S7        29.97R

......SURROUNDING SGF CWA......

CITY           SKY/WX    TMP DP  RH WIND       PRES   REMARKS
CHANUTE        LGT RAIN  66  59  78 N13       29.96R
PARSONS        CLOUDY    68  60  75 N8        29.96R
COFFEYVILLE    LGT RAIN  68  60  75 NE8       29.95R
EMPORIA        LGT RAIN  64  59  83 SE25G33   29.86F
GROVE OK       CLOUDY    70  64  83 SE16G24   29.92F
ROGERS AR      TSTM      69  68  96 W6        30.01R
SILOAM SPRINGS CLOUDY    64  54  68 N15G33    30.03R THUNDER
HARRISON AR    CLOUDY    66  63  90 SE7       29.99R
NEAR YELLVILLE CLOUDY   N/A N/A N/A CALM      29.96R

......KANSAS AND MISSOURI......

CITY           SKY/WX    TMP DP  RH WIND       PRES   REMARKS
KANSAS CTY INT LGT RAIN  65  60  84 W14G23    29.88F
DOWNTOWN KC    LGT RAIN  67  62  84 S7        29.91F
COLUMBIA       MOCLDY    61  61 100 SE10      29.94S
SEDALIA        CLOUDY    64  62  93 S7        29.93S
ST JOSEPH      LGT RAIN  66  61  84 SW18G24   29.88F
ST LOUIS       MOCLDY    66  61  84 SE8       29.98S
SPIRIT OF STL  CLEAR     61  61 100 CALM      29.97R
KIRKSVILLE     CLOUDY    63  62  97 S8        29.92S
WICHITA        CLOUDY    64  62  93 SE14      29.86F
TOPEKA         LGT RAIN  65  59  81 SE26G44   29.82F
OLATHE         LGT RAIN  63  60  90 W6        29.92F

......TENNESSEE......

CITY           SKY/WX    TMP DP  RH WIND       PRES   REMARKS
MEMPHIS        CLOUDY    67  63  87 SE6       30.02S
NASHVILLE      CLOUDY    68  57  68 S5        30.08R

......ARKANSAS.......

CITY           SKY/WX    TMP DP  RH WIND       PRES   REMARKS
FAYETTEVILLE   TSTM      61  61 100 SW29G46   30.01R VSB 3/4
FT SMITH       TSTM      71  67  87 NE7       29.95R
LITTLE ROCK    CLOUDY    67  62  84 S8        29.99F

......OKLAHOMA.......

CITY           SKY/WX    TMP DP  RH WIND       PRES   REMARKS
TULSA          CLOUDY    68  65  90 SE14      29.90R
PONCA CITY     CLOUDY    68  62  81 E14       29.86F
MCALESTER      CLOUDY    69  65  86 SE10G17   29.92S
OKLAHOMA CITY  CLOUDY    76  72  87 S16G22    29.86S

......IOWA............

CITY           SKY/WX    TMP DP  RH WIND       PRES   REMARKS
DES MOINES     CLOUDY    67  63  87 SE7       29.85R
QUAD CITIES    CLOUDY    64  59  83 E7        29.92F

......ILLINOIS........

CITY           SKY/WX    TMP DP  RH WIND       PRES   REMARKS
QUINCY         CLEAR     63  61  93 S7        29.95R
CHICAGO        MOCLDY    70  61  73 SW7       29.99R



USA.gov is the U.S. government's official web portal to all federal, state and local government web resources and services.